| time (UTC) | temp F | wind direction | speed knots | gust knots | rain 1hr in | rain 24hr in | rain mn in | humidity % | barometer mb |
| 20260507112544 | 28 | 136 | 0.0 | 0.0 | 0.00 | 0.00 | 0.00 | 80 | 1028.8 |
| 20260507112041 | 28 | 136 | 0.0 | 0.0 | 0.00 | 0.00 | 0.00 | 80 | 1028.7 |
| 20260507111538 | 29 | 136 | 0.0 | 0.0 | 0.00 | 0.00 | 0.00 | 80 | 1029.0 |
| 20260507111034 | 29 | 136 | 0.0 | 0.0 | 0.00 | 0.00 | 0.00 | 80 | 1028.8 |
| 20260507110531 | 29 | 136 | 0.0 | 0.0 | 0.00 | 0.00 | 0.00 | 80 | 1029.0 |
| 20260507110027 | 28 | 145 | 0.0 | 0.0 | 0.00 | 0.00 | 0.00 | 81 | 1028.8 |
| 20260507105525 | 28 | 137 | 0.0 | 0.0 | 0.00 | 0.00 | 0.00 | 80 | 1029.0 |
| 20260507105020 | 29 | 137 | 0.0 | 0.0 | 0.00 | 0.00 | 0.00 | 79 | 1029.0 |
| 20260507104518 | 29 | 137 | 0.0 | 0.0 | 0.00 | 0.00 | 0.00 | 78 | 1028.8 |
| 20260507104015 | 29 | 137 | 0.0 | 0.0 | 0.00 | 0.00 | 0.00 | 78 | 1029.1 |
| 20260507103510 | 30 | 137 | 0.0 | 0.0 | 0.00 | 0.00 | 0.00 | 77 | 1029.0 |
| 20260507103007 | 30 | 135 | 0.0 | 0.0 | 0.00 | 0.00 | 0.00 | 78 | 1028.8 |
| 20260507102504 | 30 | 134 | 0.0 | 0.0 | 0.00 | 0.00 | 0.00 | 78 | 1029.0 |
| 20260507102000 | 30 | 140 | 0.0 | 0.0 | 0.00 | 0.00 | 0.00 | 77 | 1028.8 |
| 20260507101455 | 30 | 137 | 0.0 | 0.0 | 0.00 | 0.00 | 0.00 | 77 | 1029.0 |
| 20260507100952 | 30 | 135 | 0.0 | 0.0 | 0.00 | 0.00 | 0.00 | 76 | 1029.0 |
| 20260507100449 | 30 | 135 | 0.0 | 0.0 | 0.00 | 0.00 | 0.00 | 75 | 1029.0 |
| 20260507095948 | 31 | 138 | 0.0 | 0.0 | 0.00 | 0.00 | 0.00 | 75 | 1029.0 |
| 20260507095445 | 31 | 140 | 0.0 | 0.0 | 0.00 | 0.00 | 0.00 | 75 | 1029.1 |
| 20260507094942 | 30 | 136 | 0.0 | 0.0 | 0.00 | 0.00 | 0.00 | 76 | 1029.1 |
| 20260507094437 | 30 | 134 | 0.0 | 0.0 | 0.00 | 0.00 | 0.00 | 76 | 1029.0 |
| 20260507093935 | 31 | 135 | 0.0 | 0.0 | 0.00 | 0.00 | 0.00 | 76 | 1028.8 |
| 20260507093432 | 31 | 136 | 0.0 | 0.0 | 0.00 | 0.00 | 0.00 | 75 | 1028.7 |
| 20260507092931 | 31 | 136 | 0.0 | 0.0 | 0.00 | 0.00 | 0.00 | 75 | 1028.8 |
| 20260507092427 | 31 | 132 | 0.0 | 0.0 | 0.00 | 0.00 | 0.00 | 76 | 1028.8 |
| 20260507091923 | 31 | 135 | 0.0 | 0.0 | 0.00 | 0.00 | 0.00 | 75 | 1028.7 |
| 20260507091420 | 31 | 135 | 0.0 | 0.0 | 0.00 | 0.00 | 0.00 | 74 | 1028.7 |
| 20260507090916 | 31 | 135 | 0.0 | 0.0 | 0.00 | 0.00 | 0.00 | 74 | 1028.8 |
| 20260507090412 | 32 | 133 | 0.0 | 0.0 | 0.00 | 0.00 | 0.00 | 74 | 1028.8 |
| 20260507085909 | 32 | 137 | 0.0 | 0.0 | 0.00 | 0.00 | 0.00 | 74 | 1029.0 |
| 20260507085406 | 32 | 131 | 0.0 | 0.0 | 0.00 | 0.00 | 0.00 | 73 | 1028.8 |
| 20260507084903 | 32 | 134 | 0.0 | 0.0 | 0.00 | 0.00 | 0.00 | 73 | 1028.7 |
| 20260507084400 | 32 | 135 | 0.0 | 0.0 | 0.00 | 0.00 | 0.00 | 73 | 1028.8 |
| 20260507083857 | 32 | 134 | 0.0 | 0.0 | 0.00 | 0.00 | 0.00 | 72 | 1029.0 |
| 20260507083353 | 33 | 133 | 0.0 | 0.0 | 0.00 | 0.00 | 0.00 | 71 | 1028.7 |
| 20260507082850 | 33 | 136 | 0.0 | 0.0 | 0.00 | 0.00 | 0.00 | 72 | 1028.8 |
| 20260507082345 | 33 | 134 | 0.0 | 0.0 | 0.00 | 0.00 | 0.00 | 72 | 1028.8 |
| 20260507081843 | 33 | 136 | 0.0 | 0.0 | 0.00 | 0.00 | 0.00 | 72 | 1028.7 |
| 20260507081338 | 33 | 137 | 0.0 | 0.0 | 0.00 | 0.00 | 0.00 | 71 | 1028.7 |
| 20260507080836 | 34 | 138 | 0.0 | 0.0 | 0.00 | 0.00 | 0.00 | 71 | 1028.6 |
| 20260507080331 | 34 | 135 | 0.0 | 0.0 | 0.00 | 0.00 | 0.00 | 71 | 1028.8 |
| 20260507075827 | 34 | 133 | 0.0 | 0.0 | 0.00 | 0.00 | 0.00 | 71 | 1028.7 |
| 20260507075323 | 34 | 137 | 0.0 | 0.0 | 0.00 | 0.00 | 0.00 | 72 | 1028.4 |
| 20260507074820 | 34 | 131 | 0.0 | 0.0 | 0.00 | 0.00 | 0.00 | 72 | 1028.6 |
| 20260507074318 | 35 | 134 | 0.0 | 0.0 | 0.00 | 0.00 | 0.00 | 70 | 1028.6 |
| 20260507073815 | 35 | 137 | 0.0 | 0.0 | 0.00 | 0.00 | 0.00 | 69 | 1028.4 |
| 20260507073311 | 35 | 128 | 0.0 | 0.0 | 0.00 | 0.00 | 0.00 | 68 | 1028.5 |
| 20260507072809 | 35 | 135 | 0.0 | 0.0 | 0.00 | 0.00 | 0.00 | 69 | 1028.6 |
| 20260507072307 | 35 | 137 | 0.0 | 0.0 | 0.00 | 0.00 | 0.00 | 68 | 1028.6 |
| 20260507071803 | 35 | 141 | 0.0 | 0.0 | 0.00 | 0.00 | 0.00 | 69 | 1028.2 |
| 20260507071259 | 35 | 137 | 0.0 | 0.0 | 0.00 | 0.00 | 0.00 | 70 | 1028.4 |
| 20260507070756 | 36 | 137 | 0.0 | 0.0 | 0.00 | 0.00 | 0.00 | 69 | 1028.4 |
| 20260507070254 | 35 | 134 | 0.0 | 0.0 | 0.00 | 0.00 | 0.00 | 69 | 1028.6 |
| 20260507065750 | 36 | 125 | 0.0 | 0.0 | 0.00 | 0.00 | 0.00 | 68 | 1028.7 |
| 20260507065247 | 36 | 136 | 0.0 | 0.0 | 0.00 | 0.00 | 0.00 | 68 | 1028.4 |
| 20260507064744 | 36 | 132 | 0.0 | 0.0 | 0.00 | 0.00 | 0.00 | 67 | 1028.5 |
| 20260507064243 | 36 | 137 | 0.0 | 0.0 | 0.00 | 0.00 | 0.00 | 66 | 1028.6 |
| 20260507063740 | 36 | 136 | 0.0 | 0.0 | 0.00 | 0.00 | 0.00 | 66 | 1028.2 |
| 20260507063237 | 37 | 135 | 0.0 | 0.0 | 0.00 | 0.00 | 0.00 | 64 | 1028.0 |
| 20260507062734 | 37 | 129 | 0.0 | 0.0 | 0.00 | 0.00 | 0.00 | 63 | 1028.1 |
| 20260507062231 | 37 | 137 | 0.0 | 0.0 | 0.00 | 0.00 | 0.00 | 62 | 1028.2 |
| 20260507061729 | 38 | 136 | 0.0 | 0.0 | 0.00 | 0.00 | 0.00 | 60 | 1028.0 |
| 20260507061227 | 38 | 136 | 0.0 | 0.0 | 0.00 | 0.00 | 0.00 | 59 | 1027.7 |
| 20260507060725 | 38 | 137 | 0.0 | 0.0 | 0.00 | 0.00 | 0.00 | 58 | 1027.7 |
| 20260507060221 | 38 | 140 | 0.0 | 0.0 | 0.00 | 0.00 | 0.00 | 58 | 1027.7 |
| 20260507055717 | 39 | 139 | 0.0 | 0.0 | 0.00 | 0.00 | 0.00 | 58 | 1027.9 |
| 20260507055213 | 39 | 136 | 0.0 | 0.0 | 0.00 | 0.00 | 0.00 | 56 | 1027.9 |
| 20260507054709 | 39 | 137 | 0.0 | 0.0 | 0.00 | 0.00 | 0.00 | 55 | 1027.6 |
| 20260507054206 | 40 | 138 | 0.0 | 0.0 | 0.00 | 0.00 | 0.00 | 56 | 1027.7 |
| 20260507053704 | 40 | 134 | 0.0 | 0.0 | 0.00 | 0.00 | 0.00 | 55 | 1027.7 |
| 20260507053201 | 40 | 134 | 0.0 | 0.0 | 0.00 | 0.00 | 0.00 | 54 | 1027.6 |
| 20260507052700 | 40 | 144 | 0.0 | 0.0 | 0.00 | 0.00 | 0.00 | 55 | 1027.6 |
| 20260507052155 | 41 | 136 | 0.0 | 0.0 | 0.00 | 0.00 | 0.00 | 53 | 1027.6 |
| 20260507051653 | 41 | 143 | 0.0 | 0.0 | 0.00 | 0.00 | 0.00 | 55 | 1027.5 |
| 20260507051150 | 41 | 150 | 0.0 | 0.0 | 0.00 | 0.00 | 0.00 | 55 | 1027.9 |
| 20260507050647 | 41 | 137 | 0.0 | 0.0 | 0.00 | 0.00 | 0.00 | 55 | 1027.4 |
| 20260507050143 | 42 | 138 | 0.0 | 0.0 | 0.00 | 0.00 | 0.00 | 54 | 1027.4 |
| 20260507045640 | 42 | 136 | 0.0 | 0.0 | 0.00 | 0.00 | 0.00 | 54 | 1027.4 |
| 20260507045137 | 42 | 131 | 0.0 | 0.0 | 0.00 | 0.00 | 0.00 | 55 | 1027.1 |
| 20260507044634 | 42 | 140 | 0.0 | 0.0 | 0.00 | 0.00 | 0.00 | 55 | 1027.5 |
| 20260507044126 | 43 | 137 | 0.0 | 0.0 | 0.00 | 0.00 | 0.00 | 54 | 1027.2 |
| 20260507043621 | 43 | 136 | 0.0 | 0.0 | 0.00 | 0.00 | 0.00 | 50 | 1027.1 |
| 20260507043118 | 44 | 134 | 0.0 | 0.0 | 0.00 | 0.00 | 0.00 | 50 | 1027.2 |
| 20260507042614 | 43 | 131 | 0.0 | 0.0 | 0.00 | 0.00 | 0.00 | 51 | 1027.1 |
| 20260507042109 | 43 | 139 | 0.0 | 0.0 | 0.00 | 0.00 | 0.00 | 51 | 1027.4 |
| 20260507041607 | 43 | 133 | 0.0 | 0.0 | 0.00 | 0.00 | 0.00 | 53 | 1027.2 |
| 20260507041103 | 44 | 141 | 0.0 | 0.0 | 0.00 | 0.00 | 0.00 | 52 | 1027.1 |
| 20260507040600 | 44 | 138 | 0.0 | 0.0 | 0.00 | 0.00 | 0.00 | 53 | 1026.9 |
| 20260507040056 | 44 | 139 | 0.0 | 0.0 | 0.00 | 0.00 | 0.00 | 52 | 1027.0 |
| 20260507035552 | 44 | 145 | 0.0 | 0.0 | 0.00 | 0.00 | 0.00 | 51 | 1027.0 |
| 20260507035049 | 45 | 136 | 0.0 | 0.0 | 0.00 | 0.00 | 0.00 | 51 | 1027.0 |
| 20260507034546 | 45 | 131 | 0.0 | 0.0 | 0.00 | 0.00 | 0.00 | 50 | 1026.9 |
| 20260507034044 | 46 | 134 | 0.0 | 0.0 | 0.00 | 0.00 | 0.00 | 50 | 1026.6 |
| 20260507033541 | 46 | 136 | 0.0 | 0.0 | 0.00 | 0.00 | 0.00 | 49 | 1026.6 |
| 20260507033038 | 46 | 143 | 0.0 | 0.0 | 0.00 | 0.00 | 0.00 | 48 | 1026.6 |
| 20260507032535 | 47 | 138 | 0.0 | 0.0 | 0.00 | 0.00 | 0.00 | 47 | 1026.6 |
| 20260507032032 | 48 | 144 | 0.0 | 0.0 | 0.00 | 0.00 | 0.00 | 45 | 1026.6 |
| 20260507031528 | 48 | 139 | 0.0 | 0.0 | 0.00 | 0.00 | 0.00 | 45 | 1026.5 |
| 20260507031025 | 49 | 136 | 0.0 | 0.0 | 0.00 | 0.00 | 0.00 | 46 | 1026.5 |
| 20260507030522 | 50 | 140 | 0.0 | 0.0 | 0.00 | 0.00 | 0.00 | 46 | 1026.4 |
| 20260507030020 | 50 | 138 | 0.0 | 0.0 | 0.00 | 0.00 | 0.00 | 46 | 1026.3 |
| 20260507025516 | 50 | 125 | 0.0 | 0.0 | 0.00 | 0.00 | 0.00 | 45 | 1025.8 |
| 20260507025014 | 50 | 124 | 0.0 | 0.0 | 0.00 | 0.00 | 0.00 | 46 | 1026.1 |
| 20260507024512 | 51 | 126 | 0.0 | 0.0 | 0.00 | 0.00 | 0.00 | 45 | 1026.0 |
| 20260507024008 | 52 | 138 | 0.0 | 0.0 | 0.00 | 0.00 | 0.00 | 45 | 1025.9 |
| 20260507023504 | 52 | 122 | 0.0 | 0.0 | 0.00 | 0.00 | 0.00 | 43 | 1025.9 |
| 20260507023001 | 53 | 142 | 0.0 | 0.0 | 0.00 | 0.00 | 0.00 | 42 | 1025.8 |
| 20260507022458 | 54 | 128 | 0.0 | 0.0 | 0.00 | 0.00 | 0.00 | 41 | 1025.9 |
| 20260507021954 | 55 | 135 | 0.0 | 0.0 | 0.00 | 0.00 | 0.00 | 41 | 1025.4 |
| 20260507021449 | 56 | 128 | 0.0 | 0.0 | 0.00 | 0.00 | 0.00 | 38 | 1025.5 |
| 20260507020947 | 57 | 125 | 0.0 | 0.0 | 0.00 | 0.00 | 0.00 | 38 | 1025.4 |
| 20260507020444 | 59 | 125 | 0.0 | 0.0 | 0.00 | 0.00 | 0.00 | 35 | 1025.3 |
| 20260507015941 | 60 | 136 | 0.0 | 0.0 | 0.00 | 0.00 | 0.00 | 33 | 1025.4 |
| 20260507015439 | 60 | 133 | 0.0 | 0.0 | 0.00 | 0.00 | 0.00 | 31 | 1025.0 |
| 20260507014936 | 61 | 119 | 0.0 | 0.0 | 0.00 | 0.00 | 0.00 | 31 | 1025.4 |
| 20260507014432 | 62 | 148 | 0.0 | 0.9 | 0.00 | 0.00 | 0.00 | 30 | 1025.2 |
| 20260507013923 | 62 | 179 | 0.0 | 0.0 | 0.00 | 0.00 | 0.00 | 30 | 1025.0 |
| 20260507013420 | 62 | 134 | 0.0 | 0.0 | 0.00 | 0.00 | 0.00 | 30 | 1025.2 |
| 20260507012918 | 62 | 184 | 0.0 | 0.0 | 0.00 | 0.00 | 0.00 | 30 | 1025.3 |
| 20260507012414 | 63 | 140 | 0.0 | 0.0 | 0.00 | 0.00 | 0.00 | 30 | 1025.0 |
| 20260507011911 | 63 | 126 | 0.0 | 0.0 | 0.00 | 0.00 | 0.00 | 29 | 1025.2 |
| 20260507011408 | 63 | 182 | 0.0 | 0.9 | 0.00 | 0.00 | 0.00 | 29 | 1025.2 |
| 20260507010907 | 64 | 188 | 2.6 | 3.5 | 0.00 | 0.00 | 0.00 | 28 | 1024.7 |
| 20260507010403 | 64 | 144 | 0.0 | 0.0 | 0.00 | 0.00 | 0.00 | 27 | 1024.9 |
| 20260507005900 | 64 | 136 | 0.0 | 0.0 | 0.00 | 0.00 | 0.00 | 28 | 1024.9 |
| 20260507005357 | 64 | 145 | 0.0 | 0.0 | 0.00 | 0.00 | 0.00 | 27 | 1024.7 |
| 20260507004854 | 64 | 143 | 0.0 | 0.0 | 0.00 | 0.00 | 0.00 | 28 | 1024.7 |
| 20260507004351 | 64 | 138 | 0.0 | 0.0 | 0.00 | 0.00 | 0.00 | 28 | 1024.8 |
| 20260507003850 | 63 | 149 | 0.0 | 0.0 | 0.00 | 0.00 | 0.00 | 28 | 1024.8 |
| 20260507003343 | 62 | 140 | 0.0 | 0.0 | 0.00 | 0.00 | 0.00 | 29 | 1024.8 |
| 20260507002839 | 62 | 298 | 1.7 | 2.6 | 0.00 | 0.00 | 0.00 | 29 | 1024.8 |
| 20260507002335 | 63 | 104 | 0.0 | 0.0 | 0.00 | 0.00 | 0.00 | 28 | 1024.8 |
| 20260507001832 | 64 | 135 | 0.0 | 0.0 | 0.00 | 0.00 | 0.00 | 27 | 1024.8 |
| 20260507001329 | 64 | 142 | 0.0 | 0.0 | 0.00 | 0.00 | 0.00 | 27 | 1024.7 |
| 20260507000825 | 63 | 132 | 0.0 | 0.0 | 0.00 | 0.00 | 0.00 | 27 | 1024.7 |
| 20260507000321 | 62 | 291 | 1.7 | 1.7 | 0.00 | 0.00 | 0.00 | 28 | 1024.5 |
| 20260506235818 | 64 | 143 | 0.0 | 0.0 | 0.00 | 0.00 | 0.00 | 28 | 1024.5 |
| 20260506235314 | 65 | 239 | 1.7 | 2.6 | 0.00 | 0.00 | 0.00 | 26 | 1024.3 |
| 20260506234811 | 65 | 181 | 1.7 | 1.7 | 0.00 | 0.00 | 0.00 | 25 | 1024.5 |
| 20260506234308 | 66 | 228 | 0.0 | 0.9 | 0.00 | 0.00 | 0.00 | 26 | 1024.7 |
| 20260506233806 | 66 | 55 | 1.7 | 2.6 | 0.00 | 0.00 | 0.00 | 26 | 1024.4 |
| 20260506233256 | 66 | 4 | 1.7 | 3.5 | 0.00 | 0.00 | 0.00 | 25 | 1024.3 |
| 20260506232754 | 66 | 182 | 0.0 | 0.0 | 0.00 | 0.00 | 0.00 | 25 | 1024.4 |
| 20260506232254 | 67 | 7 | 0.9 | 1.7 | 0.00 | 0.00 | 0.00 | 24 | 1024.3 |
| 20260506231746 | 66 | 247 | 1.7 | 3.5 | 0.00 | 0.00 | 0.00 | 24 | 1024.3 |
| 20260506231244 | 64 | 114 | 0.0 | 0.9 | 0.00 | 0.00 | 0.00 | 25 | 1024.4 |
| 20260506230740 | 65 | 285 | 1.7 | 2.6 | 0.00 | 0.00 | 0.00 | 24 | 1024.3 |
| 20260506230237 | 65 | 292 | 2.6 | 5.2 | 0.00 | 0.00 | 0.00 | 25 | 1024.4 |
| 20260506225733 | 67 | 273 | 0.9 | 1.7 | 0.00 | 0.00 | 0.00 | 24 | 1024.2 |
| 20260506225230 | 67 | 218 | 2.6 | 3.5 | 0.00 | 0.00 | 0.00 | 24 | 1024.0 |
| 20260506224726 | 67 | 150 | 0.0 | 0.0 | 0.00 | 0.00 | 0.00 | 24 | 1024.4 |
| 20260506224224 | 66 | 307 | 2.6 | 2.6 | 0.00 | 0.00 | 0.00 | 25 | 1024.0 |
| 20260506223720 | 66 | 148 | 0.9 | 1.7 | 0.00 | 0.00 | 0.00 | 24 | 1024.2 |
| 20260506223216 | 66 | 5 | 0.9 | 1.7 | 0.00 | 0.00 | 0.00 | 25 | 1024.3 |
| 20260506222713 | 67 | 211 | 3.5 | 3.5 | 0.00 | 0.00 | 0.00 | 24 | 1024.4 |
| 20260506222208 | 67 | 227 | 0.9 | 2.6 | 0.00 | 0.00 | 0.00 | 24 | 1024.3 |
| 20260506221707 | 67 | 229 | 1.7 | 2.6 | 0.00 | 0.00 | 0.00 | 24 | 1024.5 |
| 20260506221205 | 66 | 190 | 0.9 | 1.7 | 0.00 | 0.00 | 0.00 | 24 | 1024.3 |
| 20260506220701 | 65 | 150 | 0.9 | 2.6 | 0.00 | 0.00 | 0.00 | 27 | 1024.4 |
| 20260506220156 | 66 | 208 | 0.9 | 1.7 | 0.00 | 0.00 | 0.00 | 27 | 1024.4 |
| 20260506215653 | 66 | 195 | 3.5 | 3.5 | 0.00 | 0.00 | 0.00 | 24 | 1024.4 |
| 20260506215148 | 66 | 342 | 2.6 | 3.5 | 0.00 | 0.00 | 0.00 | 25 | 1024.5 |
| 20260506214645 | 65 | 152 | 0.9 | 1.7 | 0.00 | 0.00 | 0.00 | 27 | 1024.5 |
| 20260506214143 | 65 | 241 | 0.9 | 1.7 | 0.00 | 0.00 | 0.00 | 27 | 1024.5 |
| 20260506213641 | 65 | 104 | 0.0 | 0.9 | 0.00 | 0.00 | 0.00 | 28 | 1024.8 |
| 20260506213138 | 65 | 221 | 3.5 | 5.2 | 0.00 | 0.00 | 0.00 | 27 | 1024.5 |
| 20260506212635 | 65 | 285 | 0.9 | 2.6 | 0.00 | 0.00 | 0.00 | 28 | 1024.7 |
| 20260506212130 | 65 | 333 | 2.6 | 5.2 | 0.00 | 0.00 | 0.00 | 28 | 1024.5 |
| 20260506211626 | 65 | 301 | 1.7 | 2.6 | 0.00 | 0.00 | 0.00 | 28 | 1024.8 |
| 20260506211123 | 67 | 317 | 3.5 | 5.2 | 0.00 | 0.00 | 0.00 | 28 | 1024.7 |
| 20260506210620 | 65 | 283 | 3.5 | 5.2 | 0.00 | 0.00 | 0.00 | 30 | 1024.7 |
| 20260506210116 | 66 | 153 | 0.9 | 3.5 | 0.00 | 0.00 | 0.00 | 30 | 1024.4 |
| 20260506205613 | 64 | 109 | 1.7 | 2.6 | 0.00 | 0.00 | 0.00 | 29 | 1024.5 |
| 20260506205108 | 64 | 207 | 3.5 | 3.5 | 0.00 | 0.00 | 0.00 | 29 | 1024.7 |
| 20260506204606 | 64 | 46 | 1.7 | 2.6 | 0.00 | 0.00 | 0.00 | 31 | 1024.8 |
| 20260506204103 | 64 | 144 | 0.0 | 0.9 | 0.00 | 0.00 | 0.00 | 29 | 1024.5 |
| 20260506203602 | 64 | 250 | 0.9 | 1.7 | 0.00 | 0.00 | 0.00 | 31 | 1024.5 |
| 20260506203057 | 66 | 215 | 1.7 | 2.6 | 0.00 | 0.00 | 0.00 | 29 | 1024.8 |
| 20260506202555 | 63 | 180 | 0.0 | 0.9 | 0.00 | 0.00 | 0.00 | 31 | 1024.8 |
| 20260506202051 | 64 | 262 | 2.6 | 3.5 | 0.00 | 0.00 | 0.00 | 29 | 1024.7 |
| 20260506201549 | 64 | 145 | 2.6 | 3.5 | 0.00 | 0.00 | 0.00 | 30 | 1024.7 |
| 20260506201045 | 64 | 258 | 0.0 | 0.0 | 0.00 | 0.00 | 0.00 | 30 | 1024.8 |
| 20260506200542 | 64 | 221 | 2.6 | 2.6 | 0.00 | 0.00 | 0.00 | 28 | 1024.9 |
| 20260506200038 | 64 | 235 | 1.7 | 2.6 | 0.00 | 0.00 | 0.00 | 28 | 1024.7 |
| 20260506195535 | 66 | 195 | 1.7 | 5.2 | 0.00 | 0.00 | 0.00 | 27 | 1024.5 |
| 20260506195032 | 63 | 150 | 1.7 | 2.6 | 0.00 | 0.00 | 0.00 | 31 | 1024.8 |
| 20260506194530 | 64 | 140 | 1.7 | 3.5 | 0.00 | 0.00 | 0.00 | 28 | 1024.8 |
| 20260506194026 | 62 | 175 | 0.0 | 0.0 | 0.00 | 0.00 | 0.00 | 32 | 1024.9 |
| 20260506193523 | 63 | 279 | 0.9 | 1.7 | 0.00 | 0.00 | 0.00 | 31 | 1024.8 |
| 20260506193020 | 64 | 242 | 1.7 | 3.5 | 0.00 | 0.00 | 0.00 | 28 | 1024.7 |
| 20260506192517 | 66 | 19 | 0.0 | 1.7 | 0.00 | 0.00 | 0.00 | 28 | 1024.7 |
| 20260506192013 | 65 | 65 | 2.6 | 5.2 | 0.00 | 0.00 | 0.00 | 30 | 1024.5 |
| 20260506191510 | 65 | 153 | 1.7 | 2.6 | 0.00 | 0.00 | 0.00 | 30 | 1024.5 |
| 20260506191006 | 64 | 166 | 0.0 | 0.9 | 0.00 | 0.00 | 0.00 | 30 | 1024.8 |
| 20260506190503 | 64 | 188 | 0.0 | 0.9 | 0.00 | 0.00 | 0.00 | 28 | 1024.5 |
| 20260506185959 | 64 | 284 | 2.6 | 3.5 | 0.00 | 0.00 | 0.00 | 29 | 1024.7 |
| 20260506185457 | 64 | 250 | 3.5 | 7.0 | 0.00 | 0.00 | 0.00 | 30 | 1024.4 |
| 20260506184954 | 62 | 158 | 0.0 | 0.0 | 0.00 | 0.00 | 0.00 | 32 | 1024.5 |
| 20260506184451 | 61 | 299 | 0.9 | 1.7 | 0.00 | 0.00 | 0.00 | 32 | 1024.4 |
| 20260506183943 | 62 | 132 | 1.7 | 2.6 | 0.00 | 0.00 | 0.00 | 33 | 1024.7 |
| 20260506183438 | 63 | 234 | 3.5 | 5.2 | 0.00 | 0.00 | 0.00 | 31 | 1024.7 |
| 20260506182936 | 62 | 155 | 0.0 | 0.0 | 0.00 | 0.00 | 0.00 | 32 | 1024.7 |
| 20260506182433 | 60 | 284 | 0.0 | 0.9 | 0.00 | 0.00 | 0.00 | 35 | 1024.8 |
| 20260506181930 | 62 | 191 | 0.0 | 1.7 | 0.00 | 0.00 | 0.00 | 34 | 1024.7 |
| 20260506181428 | 63 | 230 | 2.6 | 5.2 | 0.00 | 0.00 | 0.00 | 32 | 1024.5 |
| 20260506180924 | 62 | 141 | 3.5 | 5.2 | 0.00 | 0.00 | 0.00 | 34 | 1024.7 |
| 20260506180420 | 63 | 149 | 0.0 | 0.9 | 0.00 | 0.00 | 0.00 | 32 | 1024.9 |
| 20260506175917 | 60 | 90 | 0.0 | 0.0 | 0.00 | 0.00 | 0.00 | 36 | 1024.8 |
| 20260506175414 | 59 | 188 | 2.6 | 5.2 | 0.00 | 0.00 | 0.00 | 37 | 1024.8 |
| 20260506174911 | 61 | 201 | 4.3 | 7.0 | 0.00 | 0.00 | 0.00 | 35 | 1024.7 |
| 20260506174409 | 60 | 141 | 1.7 | 2.6 | 0.00 | 0.00 | 0.00 | 35 | 1024.8 |
| 20260506173906 | 59 | 63 | 0.9 | 0.9 | 0.00 | 0.00 | 0.00 | 37 | 1024.9 |
| 20260506173402 | 59 | 183 | 3.5 | 5.2 | 0.00 | 0.00 | 0.00 | 37 | 1024.7 |
| 20260506172859 | 60 | 135 | 0.9 | 1.7 | 0.00 | 0.00 | 0.00 | 37 | 1024.7 |
| 20260506172355 | 58 | 274 | 0.9 | 1.7 | 0.00 | 0.00 | 0.00 | 38 | 1024.7 |
| 20260506171853 | 59 | 213 | 1.7 | 1.7 | 0.00 | 0.00 | 0.00 | 38 | 1024.7 |
| 20260506171350 | 59 | 151 | 0.0 | 0.9 | 0.00 | 0.00 | 0.00 | 37 | 1024.5 |
| 20260506170848 | 59 | 219 | 0.0 | 0.9 | 0.00 | 0.00 | 0.00 | 38 | 1024.4 |
| 20260506170344 | 60 | 141 | 0.9 | 1.7 | 0.00 | 0.00 | 0.00 | 39 | 1024.7 |
| 20260506165843 | 59 | 136 | 0.9 | 0.9 | 0.00 | 0.00 | 0.00 | 39 | 1024.5 |
| 20260506165341 | 57 | 179 | 0.9 | 0.9 | 0.00 | 0.00 | 0.00 | 39 | 1024.5 |
| 20260506164837 | 57 | 237 | 2.6 | 3.5 | 0.00 | 0.00 | 0.00 | 38 | 1024.4 |
| 20260506164333 | 58 | 180 | 0.0 | 0.9 | 0.00 | 0.00 | 0.00 | 37 | 1024.4 |
| 20260506163831 | 56 | 215 | 0.0 | 0.0 | 0.00 | 0.00 | 0.00 | 41 | 1024.3 |
| 20260506163325 | 57 | 298 | 1.7 | 3.5 | 0.00 | 0.00 | 0.00 | 39 | 1024.0 |
| 20260506162815 | 55 | 138 | 0.0 | 0.0 | 0.00 | 0.00 | 0.00 | 43 | 1024.2 |
| 20260506162314 | 55 | 85 | 0.9 | 1.7 | 0.00 | 0.00 | 0.00 | 43 | 1024.3 |
| 20260506161810 | 55 | 138 | 0.9 | 1.7 | 0.00 | 0.00 | 0.00 | 42 | 1024.2 |
| 20260506161308 | 55 | 140 | 1.7 | 2.6 | 0.00 | 0.00 | 0.00 | 42 | 1024.4 |
| 20260506160800 | 55 | 159 | 0.0 | 0.9 | 0.00 | 0.00 | 0.00 | 44 | 1024.0 |
| 20260506160256 | 55 | 97 | 1.7 | 2.6 | 0.00 | 0.00 | 0.00 | 44 | 1024.2 |
| 20260506155755 | 55 | 140 | 0.0 | 0.0 | 0.00 | 0.00 | 0.00 | 46 | 1024.2 |
| 20260506155251 | 54 | 141 | 0.0 | 0.0 | 0.00 | 0.00 | 0.00 | 47 | 1024.2 |
| 20260506153404 | 52 | 162 | 0.0 | 0.9 | 0.00 | 0.00 | 0.00 | 49 | 1024.3 |
| 20260506152901 | 51 | 184 | 0.9 | 2.6 | 0.00 | 0.00 | 0.00 | 50 | 1024.4 |
| 20260506152358 | 51 | 189 | 1.7 | 2.6 | 0.00 | 0.00 | 0.00 | 50 | 1024.3 |
| 20260506151856 | 50 | 138 | 0.0 | 0.0 | 0.00 | 0.00 | 0.00 | 51 | 1024.2 |
| 20260506151353 | 50 | 126 | 1.7 | 1.7 | 0.00 | 0.00 | 0.00 | 50 | 1024.2 |
| 20260506150850 | 50 | 313 | 0.9 | 1.7 | 0.00 | 0.00 | 0.00 | 53 | 1024.2 |
| 20260506150346 | 50 | 172 | 1.7 | 1.7 | 0.00 | 0.00 | 0.00 | 52 | 1024.2 |
| 20260506145843 | 49 | 149 | 0.9 | 0.9 | 0.00 | 0.00 | 0.00 | 53 | 1024.0 |
| 20260506145340 | 48 | 131 | 0.0 | 0.9 | 0.00 | 0.00 | 0.00 | 57 | 1023.9 |
| 20260506144837 | 48 | 133 | 0.0 | 0.0 | 0.00 | 0.00 | 0.00 | 58 | 1023.9 |
| 20260506144334 | 47 | 140 | 0.0 | 0.9 | 0.00 | 0.00 | 0.00 | 56 | 1024.3 |
| 20260506143832 | 47 | 146 | 0.9 | 1.7 | 0.00 | 0.00 | 0.00 | 57 | 1024.2 |
| 20260506143329 | 47 | 142 | 0.0 | 0.0 | 0.00 | 0.00 | 0.00 | 62 | 1024.3 |
| 20260506142827 | 46 | 140 | 0.0 | 0.0 | 0.00 | 0.00 | 0.00 | 64 | 1024.4 |
| 20260506142325 | 45 | 149 | 0.0 | 0.0 | 0.00 | 0.00 | 0.00 | 67 | 1024.3 |
| 20260506141823 | 44 | 135 | 0.0 | 0.0 | 0.00 | 0.00 | 0.00 | 68 | 1024.2 |
| 20260506141321 | 42 | 164 | 0.9 | 1.7 | 0.00 | 0.00 | 0.00 | 73 | 1023.9 |
| 20260506140818 | 41 | 131 | 0.0 | 0.0 | 0.00 | 0.00 | 0.00 | 77 | 1023.9 |
| 20260506140315 | 40 | 140 | 0.0 | 0.0 | 0.00 | 0.00 | 0.00 | 78 | 1023.9 |
| 20260506135812 | 37 | 137 | 0.0 | 0.0 | 0.00 | 0.00 | 0.00 | 85 | 1023.9 |
| 20260506135308 | 36 | 131 | 0.0 | 0.0 | 0.00 | 0.00 | 0.00 | 90 | 1024.2 |
| 20260506134805 | 34 | 129 | 0.0 | 0.0 | 0.00 | 0.00 | 0.00 | 94 | 1024.0 |
| 20260506134301 | 34 | 134 | 0.0 | 0.0 | 0.00 | 0.00 | 0.00 | 95 | 1024.0 |
| 20260506133759 | 33 | 130 | 0.0 | 0.0 | 0.00 | 0.00 | 0.00 | 96 | 1023.9 |
| 20260506133255 | 33 | 132 | 0.0 | 0.0 | 0.00 | 0.00 | 0.00 | 96 | 1023.9 |
| 20260506132752 | 32 | 130 | 0.0 | 0.0 | 0.00 | 0.00 | 0.00 | 96 | 1023.7 |
| 20260506132249 | 31 | 132 | 0.0 | 0.0 | 0.00 | 0.00 | 0.00 | 96 | 1023.8 |
| 20260506131747 | 30 | 129 | 0.0 | 0.0 | 0.00 | 0.00 | 0.00 | 96 | 1023.9 |
| 20260506131243 | 30 | 132 | 0.0 | 0.0 | 0.00 | 0.00 | 0.00 | 96 | 1023.9 |
| 20260506130740 | 28 | 136 | 0.0 | 0.0 | 0.00 | 0.00 | 0.00 | 96 | 1023.9 |
| 20260506130237 | 27 | 135 | 0.0 | 0.0 | 0.00 | 0.00 | 0.00 | 96 | 1023.9 |
| 20260506125735 | 27 | 138 | 0.0 | 0.0 | 0.00 | 0.00 | 0.00 | 96 | 1024.0 |
| 20260506125233 | 27 | 136 | 0.0 | 0.0 | 0.00 | 0.00 | 0.00 | 96 | 1023.8 |
| 20260506124731 | 27 | 138 | 0.0 | 0.0 | 0.00 | 0.00 | 0.00 | 96 | 1023.7 |
| 20260506124228 | 27 | 136 | 0.0 | 0.0 | 0.00 | 0.00 | 0.00 | 96 | 1023.8 |
| 20260506123725 | 26 | 135 | 0.0 | 0.0 | 0.00 | 0.00 | 0.00 | 96 | 1023.6 |
| 20260506123224 | 27 | 135 | 0.0 | 0.0 | 0.00 | 0.00 | 0.00 | 96 | 1023.6 |
| 20260506122720 | 26 | 135 | 0.0 | 0.0 | 0.00 | 0.00 | 0.00 | 96 | 1023.3 |
| 20260506122218 | 27 | 135 | 0.0 | 0.0 | 0.00 | 0.00 | 0.00 | 96 | 1023.7 |
| 20260506121716 | 27 | 135 | 0.0 | 0.0 | 0.00 | 0.00 | 0.00 | 96 | 1023.3 |
| 20260506121212 | 27 | 135 | 0.0 | 0.0 | 0.00 | 0.00 | 0.00 | 96 | 1023.3 |
| 20260506120710 | 27 | 135 | 0.0 | 0.0 | 0.00 | 0.00 | 0.00 | 96 | 1022.9 |
| 20260506120207 | 27 | 135 | 0.0 | 0.0 | 0.00 | 0.00 | 0.00 | 96 | 1023.1 |
| 20260506115705 | 28 | 138 | 0.0 | 0.0 | 0.00 | 0.00 | 0.00 | 96 | 1023.2 |
| 20260506115203 | 28 | 133 | 0.0 | 0.0 | 0.00 | 0.00 | 0.00 | 96 | 1023.1 |
| 20260506114700 | 28 | 133 | 0.0 | 0.0 | 0.00 | 0.00 | 0.00 | 96 | 1023.1 |
| 20260506114158 | 27 | 132 | 0.0 | 0.0 | 0.00 | 0.00 | 0.00 | 96 | 1023.1 |
| 20260506113656 | 28 | 132 | 0.0 | 0.0 | 0.00 | 0.00 | 0.00 | 96 | 1023.1 |
| 20260506113153 | 28 | 136 | 0.0 | 0.0 | 0.00 | 0.00 | 0.00 | 96 | 1022.9 |
| 20260506112649 | 28 | 137 | 0.0 | 0.0 | 0.00 | 0.00 | 0.00 | 96 | 1022.9 |